DW8913 Weather Reports


Display with metric or nautical units.
time (UTC)temp
F
wind
direction
speed
MPH
gust
MPH
rain 1hr
in
rain 24hr
in
rain mn
in
humidity
%
barometer
mb
20260504003108 51 285 0.0 0.0 0.00 0.00 0.00 57 1013.6
20260504001546 52 284 0.0 0.0 0.00 0.00 0.00 52 1013.4
20260504000010 53 284 0.0 0.0 0.00 0.00 0.00 52 1013.3
20260503234554 55 281 0.0 1.0 0.00 0.00 0.00 46 1013.3
20260503233029 56 348 0.0 3.0 0.00 0.00 0.00 42 1013.3
20260503231604 57 58 0.0 2.0 0.00 0.00 0.00 40 1013.1
20260503230033 58 200 1.0 5.0 0.00 0.00 0.00 39 1013.2
20260503224611 58 228 1.0 5.0 0.00 0.00 0.00 37 1013.0
20260503223039 58 310 1.0 5.0 0.00 0.00 0.00 34 1013.0
20260503221512 59 68 0.0 5.0 0.00 0.00 0.00 36 1012.9
20260503220059 59 269 2.0 7.0 0.00 0.00 0.00 34 1012.9
20260503214523 59 235 3.0 8.0 0.00 0.00 0.00 36 1012.7
20260503213107 59 141 2.0 7.0 0.00 0.00 0.00 35 1012.7
20260503211540 60 323 3.0 8.0 0.00 0.00 0.00 32 1012.5
20260503210008 59 323 0.0 6.0 0.00 0.00 0.00 34 1012.5
20260503204551 59 175 3.0 6.0 0.00 0.00 0.00 33 1012.5
20260503203022 59 116 1.0 7.0 0.00 0.00 0.00 37 1012.5
20260503201606 60 148 3.0 8.0 0.00 0.00 0.00 34 1012.6
20260503200035 60 217 1.0 7.0 0.00 0.00 0.00 35 1012.6
20260503194508 61 185 3.0 8.0 0.00 0.00 0.00 33 1012.6
20260503193054 61 304 4.0 9.0 0.00 0.00 0.00 33 1012.7
20260503191518 60 33 2.0 8.0 0.00 0.00 0.00 34 1012.8
20260503190101 60 136 2.0 7.0 0.00 0.00 0.00 36 1012.9
20260503184528 61 299 3.0 6.0 0.00 0.00 0.00 34 1013.0
20260503183001 61 77 2.0 7.0 0.00 0.00 0.00 34 1013.1
20260503181545 60 148 3.0 8.0 0.00 0.00 0.00 35 1013.2
20260503180016 60 286 2.0 8.0 0.00 0.00 0.00 38 1013.1
20260503174620 60 50 2.0 8.0 0.00 0.00 0.00 32 1013.1
20260503173040 60 321 2.0 7.0 0.00 0.00 0.00 34 1013.2
20260503171504 59 1 2.0 6.0 0.00 0.00 0.00 39 1013.2
20260503130107 49 55 1.0 8.0 0.00 0.00 0.00 59 1013.3
20260503100121 43 63 0.0 4.0 0.00 0.00 0.00 74 1011.1
20260503081520 44 20 0.0 2.0 0.00 0.00 0.00 70 1010.3
20260503071538 46 41 0.0 1.0 0.00 0.00 0.00 63 1009.9
20260503070110 47 155 0.0 1.0 0.00 0.00 0.00 61 1009.9
20260503054523 50 95 1.0 5.0 0.00 0.00 0.00 55 1010.1
20260503053047 50 303 1.0 4.0 0.00 0.00 0.00 53 1010.1
20260503051517 51 48 1.0 4.0 0.00 0.00 0.00 54 1010.3
20260503044539 51 249 0.0 4.0 0.00 0.00 0.00 54 1010.4
20260503043122 52 36 1.0 3.0 0.00 0.00 0.00 53 1010.3
20260503041540 52 352 0.0 3.0 0.00 0.00 0.00 53 1010.9
20260503040014 52 48 0.0 2.0 0.00 0.00 0.00 54 1010.5
20260503034609 52 63 0.0 3.0 0.00 0.00 0.00 53 1010.6
20260503033035 52 357 0.0 3.0 0.00 0.00 0.00 52 1010.7
20260503031502 52 18 0.0 3.0 0.00 0.00 0.00 51 1010.9
20260503030044 53 4 0.0 2.0 0.00 0.00 0.00 51 1010.8
20260503024510 53 302 0.0 4.0 0.00 0.00 0.00 49 1010.6
20260503023050 53 275 0.0 3.0 0.00 0.00 0.00 50 1010.8
20260503021522 53 21 0.0 3.0 0.00 0.00 0.00 50 1010.6
20260503014534 53 103 0.0 2.0 0.00 0.00 0.00 50 1010.7
20260503013002 54 25 0.0 1.0 0.00 0.00 0.00 51 1010.5
20260503011546 55 341 0.0 2.0 0.00 0.00 0.00 51 1010.5
20260503010014 55 12 0.0 1.0 0.00 0.00 0.00 51 1010.2
20260503004553 55 49 0.0 2.0 0.00 0.00 0.00 49 1010.3